Voltar ao catálogo

FENGYUN 1C DEB

AtivoSSO
NORAD 30697·DEBRIS·🇨🇳 China

Lançado May 10, 1999 de Taiyuan Satellite Launch Center

Loading…

Próximas Passagens (próximas 24 horas)

TLE

AtualizadoSource: Space-Track

Época: Sep 14, 2026, 03:03 UTC

1 30697U 99025ARF 26257.12751719  .00001357  00000-0  70097-3 0  9997
2 30697  98.8889 317.8024 0087426 124.9553 265.8209 14.14727668  1490

Acompanhe FENGYUN 1C DEB em tempo real com AllMySat

Download on the App Store